DW6193 Weather Reports


Display with metric or nautical units.
time (UTC)temp
F
wind
direction
speed
MPH
gust
MPH
rain 1hr
in
rain 24hr
in
rain mn
in
humidity
%
barometer
mb
20260906022528 62 173 3.0 6.0 0.00 0.00 0.00 1016.5
20260906022028 62 155 2.0 5.0 0.00 0.00 0.00 1016.5
20260906021600 63 176 2.0 8.0 0.00 0.00 0.00 1016.5
20260906021028 64 153 2.0 11.0 0.00 0.00 0.00 1016.6
20260906020527 66 128 5.0 11.0 0.00 0.00 0.00 1016.6
20260906020051 67 113 6.0 11.0 0.00 0.00 0.00 1016.8
20260906015527 68 69 6.0 11.0 0.00 0.00 0.00 1016.7
20260906015027 69 103 4.0 12.0 0.00 0.00 0.00 1016.7
20260906014549 72 105 7.0 15.0 0.00 0.00 0.00 1016.8
20260906014033 73 103 11.0 15.0 0.00 0.00 0.00 1016.8
20260906013528 74 322 7.0 14.0 0.00 0.00 0.00 1016.7
20260906013049 74 105 11.0 14.0 0.00 0.00 0.00 1017.0
20260906012529 74 112 11.0 14.0 0.00 0.00 0.00 1016.8
20260906012026 75 153 7.0 13.0 0.00 0.00 0.00 1016.8
20260906011549 76 111 9.0 14.0 0.00 0.00 0.00 1016.7
20260906011036 77 115 12.0 14.0 0.00 0.00 0.00 1016.9
20260906010528 79 119 10.0 13.0 0.00 0.00 0.00 1016.8
20260906010059 79 122 11.0 13.0 0.00 0.00 0.00 1016.8
20260906005528 79 116 8.0 12.0 0.00 0.00 0.00 1016.9
20260906005031 79 105 7.0 14.0 0.00 0.00 0.00 1016.8
20260906004611 78 107 8.0 14.0 0.00 0.00 0.00 1016.8
20260906004029 80 122 9.0 12.0 0.00 0.00 0.00 1016.8
20260906003528 83 106 6.0 12.0 0.00 0.00 0.00 1016.9
20260906003050 82 124 7.0 12.0 0.00 0.00 0.00 1016.8
20260906002528 81 111 7.0 15.0 0.00 0.00 0.00 1016.8
20260906002028 80 51 7.0 16.0 0.00 0.00 0.00 1016.9
20260906001559 79 117 12.0 16.0 0.00 0.00 0.00 1017.0
20260906001028 79 113 13.0 16.0 0.00 0.00 0.00 1016.9
20260906000527 78 111 11.0 16.0 0.00 0.00 0.00 1017.0
20260906000044 79 100 10.0 16.0 0.00 0.00 0.00 1016.8
20260905235528 81 74 7.0 12.0 0.00 0.00 0.00 1017.0
20260905235028 80 51 5.0 11.0 0.00 0.00 0.00 1016.9
20260905234552 80 145 3.0 14.0 0.00 0.00 0.00 1016.8
20260905234027 74 80 6.0 14.0 0.00 0.00 0.00 1017.0
20260905233528 77 166 0.0 4.0 0.00 0.00 0.00 1016.9
20260905233044 79 72 2.0 4.0 0.00 0.00 0.00 1017.0
20260905232530 79 112 0.0 4.0 0.00 0.00 0.00 1017.0
20260905232026 83 355 1.0 4.0 0.00 0.00 0.00 1016.9
20260905231544 87 355 0.0 3.0 0.00 0.00 0.00 1017.0
20260905231028 82 134 1.0 3.0 0.00 0.00 0.00 1017.0
20260905230524 82 329 0.0 3.0 0.00 0.00 0.00 1017.1
20260905230052 82 201 0.0 2.0 0.00 0.00 0.00 1017.1
20260905225530 85 0 0.0 3.0 0.00 0.00 0.00 1017.1
20260905225027 84 158 0.0 3.0 0.00 0.00 0.00 1017.1
20260905224547 82 0 0.0 2.0 0.00 0.00 0.00 1017.1
20260905224025 79 268 0.0 2.0 0.00 0.00 0.00 1017.2
20260905223524 79 243 1.0 2.0 0.00 0.00 0.00 1017.2
20260905223050 78 268 1.0 4.0 0.00 0.00 0.00 1017.2
20260905222524 74 0 1.0 4.0 0.00 0.00 0.00 1017.2
20260905222026 77 285 1.0 4.0 0.00 0.00 0.00 1017.1
20260905221547 82 281 1.0 4.0 0.00 0.00 0.00 1017.1
20260905221025 83 243 0.0 5.0 0.00 0.00 0.00 1017.2
20260905220524 77 286 1.0 5.0 0.00 0.00 0.00 1017.1
20260905220045 74 286 2.0 5.0 0.00 0.00 0.00 1017.2
20260905215524 76 261 1.0 3.0 0.00 0.00 0.00 1017.2
20260905215023 76 71 1.0 3.0 0.00 0.00 0.00 1017.2
20260905214550 77 243 1.0 3.0 0.00 0.00 0.00 1017.3
20260905214023 76 219 0.0 5.0 0.00 0.00 0.00 1017.4
20260905213528 76 311 0.0 5.0 0.00 0.00 0.00 1017.2
20260905213048 77 141 2.0 5.0 0.00 0.00 0.00 1017.2
20260905212526 83 154 0.0 3.0 0.00 0.00 0.00 1017.4
20260905212025 81 39 1.0 4.0 0.00 0.00 0.00 1017.3
20260905211547 86 236 1.0 4.0 0.00 0.00 0.00 1017.4
20260905211026 86 295 1.0 4.0 0.00 0.00 0.00 1017.3
20260905210526 89 99 1.0 3.0 0.00 0.00 0.00 1017.3
20260905210110 88 216 1.0 3.0 0.00 0.00 0.00 1017.4
20260905205523 87 311 1.0 3.0 0.00 0.00 0.00 1017.5
20260905205024 86 0 1.0 4.0 0.00 0.00 0.00 1017.6
20260905204547 85 302 1.0 4.0 0.00 0.00 0.00 1017.6
20260905204026 86 39 1.0 8.0 0.00 0.00 0.00 1017.6
20260905203529 85 268 2.0 8.0 0.00 0.00 0.00 1017.6
20260905203046 85 283 1.0 8.0 0.00 0.00 0.00 1017.6
20260905202525 85 151 3.0 8.0 0.00 0.00 0.00 1017.6
20260905202025 86 141 1.0 4.0 0.00 0.00 0.00 1017.6
20260905201544 84 3 1.0 4.0 0.00 0.00 0.00 1017.5
20260905201023 83 39 1.0 4.0 0.00 0.00 0.00 1017.6
20260905200523 85 99 1.0 4.0 0.00 0.00 0.00 1017.6
20260905200109 83 55 1.0 8.0 0.00 0.00 0.00 1017.7
20260905195523 80 311 2.0 8.0 0.00 0.00 0.00 1017.7
20260905195024 77 311 2.0 8.0 0.00 0.00 0.00 1017.7
20260905194552 81 355 1.0 7.0 0.00 0.00 0.00 1017.7
20260905194024 82 99 1.0 4.0 0.00 0.00 0.00 1017.7
20260905193525 78 106 1.0 4.0 0.00 0.00 0.00 1017.9
20260905193048 79 131 0.0 2.0 0.00 0.00 0.00 1018.0
20260905192524 80 0 0.0 3.0 0.00 0.00 0.00 1018.0
20260905192025 82 227 0.0 4.0 0.00 0.00 0.00 1018.1
20260905191543 79 210 1.0 4.0 0.00 0.00 0.00 1018.3
20260905191026 81 0 0.0 2.0 0.00 0.00 0.00 1018.2
20260905190525 79 112 0.0 2.0 0.00 0.00 0.00 1018.2
20260905190044 72 0 0.0 2.0 0.00 0.00 0.00 1018.2
20260905185524 78 0 0.0 2.0 0.00 0.00 0.00 1018.3
20260905185024 76 55 0.0 2.0 0.00 0.00 0.00 1018.4
20260905184603 74 39 0.0 3.0 0.00 0.00 0.00 1018.3
20260905184024 75 46 1.0 3.0 0.00 0.00 0.00 1018.4
20260905183526 81 227 0.0 3.0 0.00 0.00 0.00 1018.6
20260905183049 80 283 1.0 4.0 0.00 0.00 0.00 1018.5
20260905182525 77 72 0.0 4.0 0.00 0.00 0.00 1018.5
20260905182028 75 9 0.0 4.0 0.00 0.00 0.00 1018.5
20260905181555 72 0 1.0 3.0 0.00 0.00 0.00 1018.5
20260905181025 71 0 0.0 3.0 0.00 0.00 0.00 1018.6
20260905180526 70 124 0.0 4.0 0.00 0.00 0.00 1018.6
20260905180051 70 227 0.0 4.0 0.00 0.00 0.00 1018.6
20260905175526 70 99 1.0 4.0 0.00 0.00 0.00 1018.6
20260905175024 68 0 0.0 3.0 0.00 0.00 0.00 1018.5
20260905174549 67 39 0.0 2.0 0.00 0.00 0.00 1018.7
20260905174024 66 0 0.0 2.0 0.00 0.00 0.00 1018.5
20260905173525 67 0 0.0 3.0 0.00 0.00 0.00 1018.7
20260905173054 66 0 0.0 3.0 0.00 0.00 0.00 1018.6
20260905172525 66 0 0.0 3.0 0.00 0.00 0.00 1018.6
20260905172025 66 243 1.0 4.0 0.00 0.00 0.00 1018.7
20260905171550 65 0 0.0 5.0 0.00 0.00 0.00 1018.7
20260905171027 65 28 2.0 5.0 0.00 0.00 0.00 1018.6
20260905170527 65 66 3.0 5.0 0.00 0.00 0.00 1018.7
20260905170044 63 141 0.0 5.0 0.00 0.00 0.00 1018.5
20260905165526 61 99 1.0 7.0 0.00 0.00 0.00 1018.6
20260905165028 60 114 3.0 7.0 0.00 0.00 0.00 1018.5
20260905164546 59 116 2.0 6.0 0.00 0.00 0.00 1018.6
20260905164027 59 344 2.0 6.0 0.00 0.00 0.00 1018.7
20260905163524 59 210 2.0 6.0 0.00 0.00 0.00 1018.6
20260905163051 60 71 1.0 4.0 0.00 0.00 0.00 1018.6
20260905162523 59 99 0.0 3.0 0.00 0.00 0.00 1018.5
20260905162028 59 99 1.0 4.0 0.00 0.00 0.00 1018.6
20260905161546 58 99 1.0 4.0 0.00 0.00 0.00 1018.6
20260905161028 58 0 1.0 8.0 0.00 0.00 0.00 1018.6
20260905160524 58 107 2.0 9.0 0.00 0.00 0.00 1018.6
20260905160045 57 120 6.0 9.0 0.00 0.00 0.00 1018.7
20260905155526 57 99 3.0 9.0 0.00 0.00 0.00 1018.7
20260905155023 56 108 6.0 9.0 0.00 0.00 0.00 1018.7
20260905154559 56 105 4.0 9.0 0.00 0.00 0.00 1018.5
20260905154028 56 115 5.0 9.0 0.00 0.00 0.00 1018.6
20260905153528 56 126 4.0 8.0 0.00 0.00 0.00 1018.6
20260905153048 55 121 5.0 8.0 0.00 0.00 0.00 1018.5
20260905152528 55 103 4.0 8.0 0.00 0.00 0.00 1018.7
20260905152025 55 101 2.0 7.0 0.00 0.00 0.00 1018.7
20260905151553 55 107 4.0 11.0 0.00 0.00 0.00 1018.6
20260905151028 55 118 5.0 11.0 0.00 0.00 0.00 1018.6
20260905150527 54 113 8.0 11.0 0.00 0.00 0.00 1018.7
20260905150054 54 131 7.0 9.0 0.00 0.00 0.00 1018.7
20260905145526 54 101 7.0 9.0 0.00 0.00 0.00 1018.7
20260905145027 54 105 5.0 8.0 0.00 0.00 0.00 1018.7
20260905144550 54 120 2.0 8.0 0.00 0.00 0.00 1018.7
20260905144026 54 112 4.0 8.0 0.00 0.00 0.00 1018.6
20260905143527 54 109 5.0 8.0 0.00 0.00 0.00 1018.7
20260905143045 54 106 1.0 8.0 0.00 0.00 0.00 1018.7
20260905142530 54 99 2.0 8.0 0.00 0.00 0.00 1018.6
20260905142027 54 80 5.0 10.0 0.00 0.00 0.00 1018.6
20260905141550 54 103 5.0 10.0 0.00 0.00 0.00 1018.4
20260905141030 54 101 8.0 11.0 0.00 0.00 0.00 1018.4
20260905140527 53 111 7.0 11.0 0.00 0.00 0.00 1018.6
20260905140051 53 120 8.0 11.0 0.00 0.00 0.00 1018.5
20260905135527 53 113 7.0 9.0 0.00 0.00 0.00 1018.4
20260905135025 53 108 5.0 9.0 0.00 0.00 0.00 1018.4
20260905134543 53 117 5.0 9.0 0.00 0.00 0.00 1018.3
20260905134025 53 120 6.0 9.0 0.00 0.00 0.00 1018.4
20260905133524 53 118 5.0 8.0 0.00 0.00 0.00 1018.4
20260905133052 53 114 4.0 8.0 0.00 0.00 0.00 1018.3
20260905132525 53 108 1.0 5.0 0.00 0.00 0.00 1018.3
20260905132025 53 106 3.0 5.0 0.00 0.00 0.00 1018.3
20260905131601 53 111 2.0 4.0 0.00 0.00 0.00 1018.1
20260905131030 53 116 1.0 2.0 0.00 0.00 0.00 1018.2
20260905130524 53 141 0.0 2.0 0.00 0.00 0.00 1018.1
20260905130044 53 0 0.0 3.0 0.00 0.00 0.00 1018.1
20260905125524 53 0 1.0 4.0 0.00 0.00 0.00 1018.0
20260905125024 53 99 1.0 7.0 0.00 0.00 0.00 1017.9
20260905124543 53 109 3.0 7.0 0.00 0.00 0.00 1018.0
20260905124024 53 110 4.0 7.0 0.00 0.00 0.00 1018.0
20260905123526 53 109 3.0 5.0 0.00 0.00 0.00 1018.0
20260905123107 53 123 3.0 5.0 0.00 0.00 0.00 1018.1
20260905122527 53 116 2.0 4.0 0.00 0.00 0.00 1018.1
20260905122024 53 99 0.0 2.0 0.00 0.00 0.00 1018.1
20260905121546 53 141 0.0 2.0 0.00 0.00 0.00 1018.0
20260905121024 53 112 1.0 3.0 0.00 0.00 0.00 1018.1
20260905120524 53 0 1.0 3.0 0.00 0.00 0.00 1017.9
20260905120045 53 114 1.0 4.0 0.00 0.00 0.00 1017.9
20260905115529 53 0 2.0 4.0 0.00 0.00 0.00 1018.0
20260905115026 53 116 2.0 4.0 0.00 0.00 0.00 1017.9
20260905114546 53 120 1.0 3.0 0.00 0.00 0.00 1018.0
20260905114025 54 0 0.0 4.0 0.00 0.00 0.00 1017.9
20260905113525 54 131 1.0 4.0 0.00 0.00 0.00 1018.0
20260905113048 53 116 1.0 3.0 0.00 0.00 0.00 1017.9
20260905112525 54 141 0.0 4.0 0.00 0.00 0.00 1017.9
20260905112024 54 243 0.0 5.0 0.00 0.00 0.00 1017.9
20260905111549 54 103 3.0 5.0 0.00 0.00 0.00 1017.9
20260905111029 53 124 2.0 4.0 0.00 0.00 0.00 1017.9
20260905110529 53 116 2.0 4.0 0.00 0.00 0.00 1017.8
20260905110042 53 115 0.0 3.0 0.00 0.00 0.00 1018.0
20260905105527 53 268 1.0 3.0 0.00 0.00 0.00 1017.9
20260905105029 53 243 0.0 5.0 0.00 0.00 0.00 1017.9
20260905104551 53 99 0.0 5.0 0.00 0.00 0.00 1017.9
20260905104025 53 116 2.0 5.0 0.00 0.00 0.00 1018.0
20260905103525 53 105 2.0 6.0 0.00 0.00 0.00 1018.0
20260905103054 53 76 2.0 9.0 0.00 0.00 0.00 1018.1
20260905102527 53 103 6.0 10.0 0.00 0.00 0.00 1018.0
20260905102025 53 116 6.0 10.0 0.00 0.00 0.00 1017.9
20260905101544 53 124 7.0 10.0 0.00 0.00 0.00 1017.9
20260905101024 53 134 7.0 10.0 0.00 0.00 0.00 1017.9
20260905100527 53 124 4.0 8.0 0.00 0.00 0.00 1017.8
20260905100053 53 120 2.0 5.0 0.00 0.00 0.00 1017.9
20260905095528 53 183 1.0 7.0 0.00 0.00 0.00 1017.8
20260905095027 53 51 3.0 7.0 0.00 0.00 0.00 1017.8
20260905094553 53 116 3.0 4.0 0.00 0.00 0.00 1017.9
20260905094029 53 128 2.0 5.0 0.00 0.00 0.00 1017.9
20260905093525 53 99 2.0 5.0 0.00 0.00 0.00 1017.9
20260905093048 53 116 3.0 5.0 0.00 0.00 0.00 1017.9
20260905092528 52 136 1.0 3.0 0.00 0.00 0.00 1017.8
20260905092028 52 234 1.0 3.0 0.00 0.00 0.00 1017.8
20260905091551 53 227 0.0 4.0 0.00 0.00 0.00 1017.9
20260905091026 53 131 1.0 4.0 0.00 0.00 0.00 1017.8
20260905090527 53 118 2.0 3.0 0.00 0.00 0.00 1017.8
20260905090051 53 147 1.0 3.0 0.00 0.00 0.00 1017.8
20260905085524 53 128 1.0 3.0 0.00 0.00 0.00 1017.7
20260905085026 53 134 1.0 4.0 0.00 0.00 0.00 1017.7
20260905084553 52 216 1.0 4.0 0.00 0.00 0.00 1017.8
20260905084028 53 264 1.0 4.0 0.00 0.00 0.00 1017.6
20260905083535 53 124 1.0 3.0 0.00 0.00 0.00 1017.6
20260905083049 53 103 2.0 4.0 0.00 0.00 0.00 1017.6
20260905082524 52 141 1.0 5.0 0.00 0.00 0.00 1017.6
20260905082028 52 268 2.0 5.0 0.00 0.00 0.00 1017.7
20260905081543 53 243 1.0 4.0 0.00 0.00 0.00 1017.6
20260905081029 53 151 1.0 4.0 0.00 0.00 0.00 1017.6
20260905080542 53 268 1.0 4.0 0.00 0.00 0.00 1017.6
20260905080128 53 274 1.0 4.0 0.00 0.00 0.00 1017.6
20260905075528 53 275 2.0 6.0 0.00 0.00 0.00 1017.6
20260905075025 54 273 3.0 6.0 0.00 0.00 0.00 1017.7
20260905074550 54 274 3.0 6.0 0.00 0.00 0.00 1017.6
20260905074027 54 263 2.0 5.0 0.00 0.00 0.00 1017.5
20260905073527 54 278 2.0 5.0 0.00 0.00 0.00 1017.4
20260905073045 54 268 3.0 5.0 0.00 0.00 0.00 1017.5
20260905072530 53 247 2.0 4.0 0.00 0.00 0.00 1017.4
20260905072029 53 264 2.0 4.0 0.00 0.00 0.00 1017.4
20260905071542 54 264 2.0 4.0 0.00 0.00 0.00 1017.4
20260905071028 54 268 2.0 4.0 0.00 0.00 0.00 1017.4
20260905070530 54 263 1.0 4.0 0.00 0.00 0.00 1017.2
20260905070057 54 221 1.0 3.0 0.00 0.00 0.00 1017.2
20260905065529 54 239 1.0 3.0 0.00 0.00 0.00 1017.2
20260905065026 54 252 1.0 2.0 0.00 0.00 0.00 1017.2
20260905064553 54 227 1.0 2.0 0.00 0.00 0.00 1017.3
20260905064028 53 227 1.0 3.0 0.00 0.00 0.00 1017.1
20260905063525 54 268 1.0 3.0 0.00 0.00 0.00 1017.2
20260905063047 54 268 1.0 3.0 0.00 0.00 0.00 1017.3
20260905062524 54 219 1.0 3.0 0.00 0.00 0.00 1017.0
20260905062025 54 276 2.0 4.0 0.00 0.00 0.00 1017.1
20260905061558 53 276 2.0 4.0 0.00 0.00 0.00 1017.1
20260905061032 53 247 2.0 5.0 0.00 0.00 0.00 1017.1
20260905060528 53 240 2.0 5.0 0.00 0.00 0.00 1017.0
20260905060104 53 261 2.0 4.0 0.00 0.00 0.00 1017.1
20260905055527 54 252 1.0 3.0 0.00 0.00 0.00 1017.1
20260905055028 53 176 1.0 4.0 0.00 0.00 0.00 1017.0
20260905054554 53 227 1.0 4.0 0.00 0.00 0.00 1017.0
20260905054028 53 265 1.0 4.0 0.00 0.00 0.00 1017.0
20260905053528 53 261 1.0 4.0 0.00 0.00 0.00 1017.1
20260905053056 53 255 2.0 4.0 0.00 0.00 0.00 1017.0
20260905052527 53 239 2.0 4.0 0.00 0.00 0.00 1017.0
20260905052025 53 112 1.0 4.0 0.00 0.00 0.00 1016.8
20260905051552 53 250 1.0 4.0 0.00 0.00 0.00 1016.8
20260905051028 53 216 1.0 4.0 0.00 0.00 0.00 1017.0
20260905050529 53 232 1.0 5.0 0.00 0.00 0.00 1016.9
20260905050045 53 222 1.0 5.0 0.00 0.00 0.00 1016.8
20260905045523 53 255 2.0 5.0 0.00 0.00 0.00 1016.9
20260905045027 53 268 3.0 5.0 0.00 0.00 0.00 1016.8
20260905044552 53 279 2.0 4.0 0.00 0.00 0.00 1016.8
20260905044024 54 268 2.0 4.0 0.00 0.00 0.00 1017.0
20260905043524 54 243 1.0 3.0 0.00 0.00 0.00 1016.9
20260905043105 54 166 1.0 4.0 0.00 0.00 0.00 1017.0
20260905042528 54 158 1.0 4.0 0.00 0.00 0.00 1016.7
20260905042024 54 268 2.0 4.0 0.00 0.00 0.00 1016.9
20260905041544 54 273 1.0 6.0 0.00 0.00 0.00 1016.9
20260905041025 54 295 2.0 6.0 0.00 0.00 0.00 1016.8
20260905040526 54 280 2.0 5.0 0.00 0.00 0.00 1016.9
20260905040052 54 265 3.0 5.0 0.00 0.00 0.00 1016.7
20260905035525 54 276 3.0 5.0 0.00 0.00 0.00 1016.7
20260905035026 54 276 3.0 6.0 0.00 0.00 0.00 1016.5
20260905034544 54 290 4.0 6.0 0.00 0.00 0.00 1016.5
20260905034024 54 277 3.0 6.0 0.00 0.00 0.00 1016.6
20260905033523 54 280 2.0 5.0 0.00 0.00 0.00 1016.4
20260905033044 54 285 2.0 4.0 0.00 0.00 0.00 1016.4
20260905032529 54 283 2.0 4.0 0.00 0.00 0.00 1016.3
20260905032025 53 273 3.0 4.0 0.00 0.00 0.00 1016.3
20260905031544 53 176 3.0 4.0 0.00 0.00 0.00 1016.2
20260905031027 54 176 3.0 4.0 0.00 0.00 0.00 1016.2
20260905030525 54 176 3.0 4.0 0.00 0.00 0.00 1016.3
20260905030053 54 176 3.0 4.0 0.00 0.00 0.00 1016.2
20260905025523 54 176 3.0 4.0 0.00 0.00 0.00 1016.4
20260905025027 54 176 3.0 4.0 0.00 0.00 0.00 1016.3
20260905024547 54 176 3.0 4.0 0.00 0.00 0.00 1016.3
20260905024025 54 176 3.0 4.0 0.00 0.00 0.00 1016.3
20260905023531 54 176 3.0 4.0 0.00 0.00 0.00 1016.3
20260905023045 54 176 3.0 4.0 0.00 0.00 0.00 1016.3